Location: Peebles
(55.6412°N, 3.1714°W)
Time: 16:35:24
(UTC+01:00)

Cosmos 1934 Rocket - Pass Details

Date: 28 January 2022
Orbit: 938 x 999 km, 83.0° (Epoch: 25 May)

Event Time Altitude Azimuth Distance (km) Brightness Sun altitude
Rises 07:26:41 0° 186° (S) 3,693 7.3 -6.7°
Reaches altitude 10° 07:29:12 10° 186° (S) 2,742 6.6 -6.3°
Maximum altitude 07:35:30 85° 100° (E) 990 4.2 -5.5°
Drops below altitude 10° 07:41:45 10° 12° (NNE) 2,719 6.2 -4.7°
Sets 07:44:15 0° 12° (NNE) 3,661 6.9 -4.4°
